Location: Caltech
(34.1382°N, 118.1253°W)
Time: 01:25:26
(UTC-07:00)

BREEZE M DEB (TANK) - Visible Passes

Search period start: 04 July 2015 00:00
Search period end: 14 July 2015 00:00
Orbit: 311 x 13789 km, 49.6° (Epoch: 01 July)

Date Brightness Start Highest point End Pass type
(mag) Time Alt. Az. Time Alt. Az. Time Alt. Az.
04 Jul 7.8 01:53:54 10° NW 03:39:58 44° WSW 04:06:21 10° SSW visible
04 Jul 9.2 17:51:36 10° WSW 18:30:58 78° NNW 20:43:12 10° ENE visible
04 Jul 8.1 22:44:44 10° WNW 00:52:56 87° SW 01:34:22 10° SE visible
05 Jul 8.1 04:36:59 10° NW 05:29:31 13° W 05:39:04 10° W visible
05 Jul 8.7 19:50:33 10° W 21:15:40 68° N 22:52:30 10° ESE visible
06 Jul 7.7 01:01:46 10° NW 02:56:18 53° WSW 03:21:20 21° S visible
06 Jul 8.2 21:56:49 10° WNW 00:02:06 85° NE 00:50:01 14° SE visible
07 Jul 8.1 03:33:14 10° NW 04:47:27 20° W 05:06:06 10° WSW visible
07 Jul 8.9 19:05:49 10° W 20:13:54 68° N 22:06:44 10° E visible
08 Jul 7.7 00:10:52 10° NW 02:11:39 62° WSW 02:36:42 30° S visible
08 Jul 8.3 21:09:44 10° WNW 23:08:11 79° NNE 00:05:48 15° SE visible
09 Jul 8.0 02:35:38 10° NW 04:04:59 28° W 04:23:36 17° SW visible
09 Jul 9.0 18:21:36 10° WSW 19:15:14 69° NNW 21:19:55 10° E visible
09 Jul 7.8 23:21:03 10° NW 01:25:46 71° WSW 01:52:51 35° S visible
10 Jul 8.4 20:23:23 10° WNW 22:10:40 74° NNE 23:22:13 14° ESE visible
11 Jul 8.0 01:41:05 10° NW 03:22:03 36° WSW 03:40:04 25° SW visible
11 Jul 9.2 17:37:48 10° WSW 18:20:17 72° NNW 20:31:51 10° E visible
11 Jul 7.9 22:32:12 10° WNW 00:38:15 79° SW 01:09:33 37° SSE visible
12 Jul 8.6 19:37:42 10° W 21:09:47 70° NNE 22:39:04 11° ESE visible
13 Jul 8.0 00:48:34 10° NW 02:38:31 44° WSW 02:56:59 32° SW visible
